Weather observations for the past three days for
Clemson, Clemson-Oconee County Airport
Imperial (Metric)
Date Time (edt) Wind (mph) Vis. (mi.) Weather Sky Cond. Temperature (ºF) Relative Humidity Wind Chill (°F) Heat Index (°F) Pressure Precipitation (in)
Air Dwpt 6 hour altimeter (in) sea level (mb) 1 hr 3 hr 6 hr
Max. Min.
04 17:54 Calm 10.00 Fair CLR 75 46 36% 77 29.95 1013.7
04 16:54 Vrbl 5 10.00 Fair CLR 75.9 43 31% 77 29.95 1013.7
04 15:54 Calm 10.00 Fair CLR 75.9 39 26% 77 29.97 1014.1
04 14:54 Vrbl 7 10.00 Fair CLR 75 42.1 31% 77 29.99 1014.9
04 13:54 Vrbl 3 10.00 NULL NULL 73 41 73.9 51.1 32% 30.01 1015.6
04 12:54 Vrbl 3 10.00 Fair CLR 71.1 43 36% 30.03 1016.1
04 11:54 Vrbl 6 10.00 Fair CLR 68 43 40% 30.05 1017.1
04 10:54 SW 3 10.00 Fair CLR 66 41 40% 30.06 1017.2
04 09:54 Vrbl 3 10.00 Fair CLR 63 39.9 43% 30.06 1017.5
04 08:54 W 5 10.00 Fair CLR 57 43 60% 30.06 1017.2
04 07:54 W 5 10.00 Fair CLR 50 39.9 54 46 68% 49 30.05 1017.2
04 06:54 W 5 10.00 Fair CLR 46.9 39 74% 45 30.05 1017.0
04 05:54 Calm 10.00 Fair CLR 46.9 39 74% 30.04 1016.9
04 04:54 W 9 10.00 Fair CLR 50 39 66% 47 30.04 1016.6
04 03:54 SW 7 10.00 Fair CLR 52 37.9 59% 30.03 1016.4
04 02:54 SW 7 10.00 Fair CLR 53.1 37.9 57% 30.04 1016.6
04 01:54 W 8 10.00 Fair CLR 54 37.9 64.9 53.1 55% 30.05 1017.1
04 00:54 W 9 10.00 Fair CLR 55 37.9 53% 30.04 1016.8
03 23:54 SW 7 10.00 Fair CLR 55.9 37.9 51% 30.04 1016.9
03 22:54 SW 7 10.00 Fair CLR 59 37.9 46% 30.04 1016.7
03 21:54 Vrbl 3 10.00 Fair CLR 60.1 37.9 44% 30.02 1016.2
03 20:54 Vrbl 3 10.00 Fair CLR 62.1 37.9 41% 30.01 1015.8
03 19:54 Calm 10.00 Fair CLR 64.9 37.9 70 64 37% 29.99 1015.3
03 18:54 Calm 10.00 Fair CLR 68 36 31% 30 1015.4
03 17:54 Vrbl 3 10.00 Fair CLR 69.1 37 31% 30 1015.6
03 16:54 Vrbl 5 G 17 10.00 Fair CLR 69.1 36 30% 30.02 1016.1
03 15:54 Vrbl 5 10.00 Fair CLR 69.1 37.9 32% 30.05 1017.2
03 14:54 W 8 10.00 Fair CLR 66 35.1 32% 30.09 1018.4
03 13:54 W 7 10.00 Fair CLR 64 37.9 64 48 38% 30.1 1018.9
03 12:54 Vrbl 3 10.00 Fair CLR 62.1 37.9 41% 30.12 1019.8
03 11:54 Vrbl 7 10.00 Fair CLR 60.1 37.9 44% 30.14 1020.4
03 10:54 Vrbl 3 10.00 A Few Clouds FEW036 59 39.9 49% 30.14 1020.3
03 09:54 Calm 10.00 Fair CLR 55.9 41 57% 30.14 1020.1
03 08:54 N 3 10.00 Fair CLR 51.1 44.1 77% 30.13 1020.2
03 07:54 Calm 10.00 Fair CLR 48 43 50 41 83% 30.12 1019.8
03 06:54 N 3 10.00 Fair CLR 42.1 39.9 92% 30.1 1019.1
03 05:54 N 6 10.00 Fair CLR 44.1 39.9 85% 41 30.08 1018.2
03 04:54 Calm 10.00 Fair CLR 43 42.1 97% 30.06 1017.7
03 03:54 Calm 10.00 Fair CLR 46.9 39 74% 30.05 1017.1
03 02:54 Calm 10.00 Fair CLR 46.9 39.9 77% 30.03 1016.5
03 01:54 Calm 10.00 Fair CLR 48 39.9 59 48 74% 30.03 1016.4
03 00:54 NW 3 10.00 Fair CLR 51.1 37 59% 30.02 1016.3
02 23:54 W 3 10.00 Fair CLR 53.1 37.9 57% 30.02 1016.2
02 22:54 Calm 10.00 Fair CLR 52 45 77% 30 1015.6
02 21:54 Calm 10.00 Mostly Cloudy BKN095 55.9 46 70% 29.98 1014.8
02 20:54 Calm 10.00 Mostly Cloudy FEW043 BKN085 BKN100 57 52 83% 29.94 1013.5
02 19:54 NW 3 10.00 Partly Cloudy SCT049 SCT060 57.9 51.1 64.9 57 78% 29.91 1012.2 0.01
02 18:54 Calm 10.00 Overcast SCT047 OVC095 59 50 72% 29.89 1011.6 0.01
02 17:54 N 5 10.00 Overcast SCT060 BKN095 OVC110 63 46 54% 29.87 1011.0
02 16:54 Calm 10.00 Mostly Cloudy BKN050 BKN065 64 45 50% 29.86 1010.7
02 15:54 Calm 10.00 Overcast SCT075 OVC095 63 44.1 50% 29.88 1011.2
02 14:54 SE 5 10.00 Fair CLR 63 44.1 50% 29.89 1011.5
02 13:54 E 8 10.00 Mostly Cloudy BKN070 BKN085 62.1 43 63 55.9 50% 29.91 1012.2
02 12:54 E 6 10.00 Overcast OVC065 61 44.1 54% 29.92 1012.7
02 11:54 E 10 10.00 Overcast SCT050 OVC070 59 44.1 58% 29.93 1013.1
02 10:54 E 9 G 17 10.00 Overcast BKN060 BKN075 OVC120 59 45 60% 29.93 1012.9
02 09:54 NE 8 10.00 Partly Cloudy FEW055 SCT120 57.9 48 70% 29.92 1012.7
02 08:54 E 6 10.00 Partly Cloudy SCT120 57.9 48.9 72% 29.91 1012.5
02 07:54 E 3 10.00 Overcast OVC120 57 51.1 57.9 55 81% 29.91 1012.2
02 06:54 NE 6 10.00 Overcast OVC110 55.9 53.1 90% 29.86 1010.7
02 05:54 N 5 9.00 Mostly Cloudy BKN120 55.9 54 93% 29.86 1010.6
02 04:54 Calm 10.00 Mostly Cloudy BKN110 55.9 55 97% 29.87 1011.0
02 03:54 Calm 10.00 Light Rain OVC075 57 54 90% 29.89 1011.6
02 02:54 Calm 10.00 Overcast OVC100 57 54 90% 29.88 1011.3
02 01:54 Calm 10.00 Overcast OVC120 57.9 54 62.1 57 87% 29.89 1011.5
02 00:54 Calm 10.00 Overcast OVC110 59 54 83% 29.9 1011.9
01 23:54 Calm 10.00 A Few Clouds FEW120 59 53.1 81% 29.91 1012.4
01 22:54 Calm 10.00 Fair CLR 60.1 52 75% 29.92 1012.6
01 21:54 Calm 10.00 Fair CLR 59 50 72% 29.91 1012.4
01 20:54 Calm 10.00 Fair CLR 60.1 51.1 72% 29.91 1012.2
01 19:54 Calm 10.00 Fair CLR 61 50 66 61 67% 29.89 1011.5
Date Time (edt) Wind (mph) Vis. (mi.) Weather Sky Cond. Air Dwpt Max. Min. Relative Humidity Wind Chill (°F) Heat Index (°F) altimeter (in) sea level (mb) 1 hr 3 hr 6 hr
6 hour
Temperature (ºF) Pressure Precipitation (in)